Wind_Speed
39 39 40 41 41 41 41 41 40 40 40 40 40 39 39 38 37 36 35 35 34 33 32 32 32 32 31 31 31 31 32 32 31 31 31 32 32 32 32 32 31 31 31
38 39 39 39 40 41 40 41 41 40 40 40 40 40 39 38 37 36 35 34 34 33 33 32 32 31 31 31 31 31 31 32 31 31 31 32 32 32 31 31 30 30 30
38 38 39 39 39 40 40 41 41 41 40 40 40 40 39 39 38 37 35 34 33 33 33 32 32 31 31 31 31 31 31 31 31 31 31 31 31 30 30 29 29 28 28
37 38 39 40 39 39 39 40 40 40 40 40 39 39 38 38 38 37 36 34 33 33 32 32 32 31 31 31 32 32 32 32 31 30 30 30 30 30 29 29 28 28 27
36 37 39 39 40 40 39 39 39 39 39 40 39 38 37 37 37 37 36 34 33 32 32 31 31 31 31 32 32 32 31 31 30 29 29 29 29 29 29 29 28 27 27
36 37 38 39 39 39 40 39 39 39 39 39 39 39 38 37 37 37 36 35 34 33 32 31 30 30 31 31 32 31 30 30 29 29 29 28 28 28 29 28 27 27 26
36 37 37 38 38 38 39 39 39 39 39 39 39 38 37 37 37 37 36 35 35 34 33 32 31 30 30 30 30 30 30 29 29 29 28 27 28 28 28 28 27 26 26
36 36 37 37 38 38 38 38 39 39 39 39 38 38 38 38 37 36 36 35 35 34 33 33 32 31 30 30 30 30 29 29 29 28 28 28 28 27 27 27 27 26 26
36 36 36 36 37 37 38 38 38 38 39 39 38 38 38 38 37 36 36 35 34 34 33 32 32 31 31 30 30 30 29 29 29 28 28 28 28 27 27 27 27 26 26
35 35 35 36 37 37 37 37 37 38 38 38 38 38 37 37 37 36 35 34 34 33 32 31 31 31 30 31 30 29 29 29 29 29 28 28 27 26 27 27 27 26 26
34 35 34 35 35 36 36 37 37 37 38 38 38 37 36 36 36 35 34 34 33 32 31 31 31 31 31 30 29 28 28 28 28 28 28 27 27 27 27 26 26 26 25
33 34 34 33 33 34 35 35 36 36 36 37 37 37 36 35 35 35 34 34 33 32 32 31 31 31 30 29 29 28 28 27 27 27 27 26 26 26 25 24 24 24 23
31 32 32 32 32 33 33 33 34 35 35 35 36 36 36 35 35 35 35 34 34 33 33 32 31 30 30 29 28 28 27 27 27 26 25 24 24 23 22 22 22 21 21
30 30 31 31 32 32 32 32 33 33 33 34 35 35 36 35 35 35 35 34 34 33 33 32 30 29 29 29 28 27 27 26 25 24 23 22 22 21 20 20 20 20 20
30 31 31 31 32 32 33 33 33 33 33 33 33 34 34 35 35 35 34 34 33 32 32 31 30 29 29 29 29 28 27 25 24 23 23 22 21 21 20 20 20 20 20
30 30 31 32 32 33 33 33 33 33 33 33 33 33 33 34 34 34 33 33 32 32 31 30 29 29 29 28 28 27 26 25 24 23 23 22 22 21 20 21 21 20 20
30 30 31 31 31 31 32 32 33 33 33 33 33 32 32 33 34 33 33 32 31 31 30 30 29 29 29 28 28 27 27 26 25 23 22 22 21 21 21 21 20 20 20
30 30 30 30 30 31 31 31 31 32 32 32 32 32 32 32 32 33 32 32 32 31 30 30 29 29 29 28 28 27 26 26 25 24 23 22 22 21 21 21 21 20 19
30 30 30 30 30 30 30 30 30 30 30 31 31 31 31 31 32 33 33 32 31 31 30 30 29 29 29 29 28 27 26 25 25 25 24 23 23 22 22 21 20 19 18
30 30 29 29 29 29 29 29 29 29 29 29 30 30 31 31 31 32 32 31 30 29 29 30 30 29 28 28 28 27 26 25 25 24 25 24 24 22 21 21 20 19 18
31 30 30 29 29 29 28 28 28 28 29 29 29 30 30 30 30 30 30 30 30 30 30 30 30 29 28 28 28 27 26 25 25 24 24 24 23 22 21 20 19 19 18
31 31 30 30 30 29 28 28 27 27 27 27 28 28 28 28 29 30 30 30 30 30 29 29 28 28 28 28 27 27 26 25 24 24 23 23 22 22 21 20 19 18 17
30 30 30 29 29 29 28 28 27 27 26 26 26 26 26 27 28 29 29 29 28 28 28 27 27 27 27 27 26 26 25 24 24 23 22 22 21 20 20 19 18 17 16
28 28 28 28 28 27 27 27 26 26 26 25 25 25 25 25 27 27 28 28 28 27 27 27 27 26 26 25 25 25 24 24 23 22 21 21 20 20 19 18 17 17 17
27 27 27 27 27 27 27 26 26 26 25 25 25 25 25 24 25 26 26 27 27 27 26 26 26 25 25 24 24 24 24 23 22 22 21 21 21 20 19 18 17 16 16
26 26 26 26 26 27 27 26 26 25 25 25 25 25 25 24 24 25 26 26 26 26 25 25 25 25 24 23 23 23 23 23 22 22 21 21 20 19 18 17 16 16 15
Wind_Direction
244 245 247 249 249 250 251 253 254 256 258 259 260 262 264 266 268 270 273 275 277 279 281 282 283 286 288 289 290 292 293 295 295 296 297 298 300 300 302 303 301 300 300
245 245 246 248 249 250 252 253 254 255 257 259 260 261 263 265 267 269 272 274 276 278 280 281 283 284 287 289 291 292 294 294 295 296 297 297 299 301 302 302 301 301 301
246 246 246 247 249 251 253 253 254 255 257 259 260 261 262 263 265 268 269 272 275 276 278 279 281 284 286 289 290 292 294 295 294 295 296 297 298 300 302 302 301 301 301
247 247 248 248 250 251 253 254 254 255 256 258 260 261 262 263 264 266 268 270 272 274 276 278 280 282 285 288 289 290 292 293 294 295 295 296 298 300 302 302 300 300 301
248 249 249 250 250 251 253 254 255 255 256 257 258 260 262 263 264 265 266 268 270 272 275 278 280 282 284 287 288 289 291 293 293 294 295 297 297 298 301 301 300 300 300
249 250 250 250 252 253 254 255 255 255 255 256 257 259 261 262 264 265 265 267 267 270 273 276 279 281 284 286 287 287 289 291 292 294 295 297 299 300 302 300 300 300 300
249 250 250 251 252 254 255 255 255 255 256 257 257 259 260 262 263 263 264 265 266 268 271 274 277 280 282 284 285 286 288 290 292 293 294 296 297 299 300 299 300 300 300
251 251 252 253 253 254 256 257 256 256 256 256 257 258 259 260 261 262 263 264 265 267 270 272 274 278 280 280 282 284 286 288 289 290 292 293 294 297 298 299 299 299 299
252 253 253 254 254 254 256 257 257 256 256 256 257 258 258 259 259 260 261 263 264 265 268 270 273 276 278 278 279 281 283 285 287 289 291 293 293 294 296 297 298 299 301
252 253 254 255 255 255 256 256 256 256 256 256 256 256 257 257 257 258 259 262 263 264 267 269 273 276 277 277 279 280 282 283 285 287 290 292 292 294 295 295 297 298 300
253 254 254 255 256 256 256 256 256 257 257 257 256 256 257 256 255 256 257 260 263 264 266 269 272 274 275 276 277 278 280 282 284 286 289 290 291 293 293 295 296 297 299
254 254 254 255 256 256 256 256 255 256 257 256 256 256 255 254 254 255 257 259 262 263 265 268 270 272 273 274 275 277 279 282 285 288 288 289 291 292 292 293 295 297 299
254 254 254 254 254 254 255 255 256 256 256 254 254 253 253 254 254 254 256 258 261 262 264 267 269 269 269 271 273 276 278 282 285 287 288 289 291 291 293 295 295 296 298
254 254 254 253 254 255 255 255 256 256 256 255 254 253 252 253 254 255 257 259 260 261 262 264 266 267 267 268 270 273 277 280 283 284 287 288 290 291 291 292 294 296 299
257 256 254 254 254 254 256 256 256 257 257 255 255 254 252 252 253 255 257 257 259 259 261 263 264 265 267 267 268 270 273 276 279 282 284 287 288 288 289 290 293 296 298
258 258 256 256 255 254 255 256 256 256 257 256 256 255 253 252 252 253 254 255 256 258 260 262 263 264 264 265 266 268 269 272 275 280 283 284 285 287 287 288 289 292 293
259 259 259 259 258 257 257 257 257 257 257 257 257 256 253 252 251 252 251 252 255 258 260 260 261 262 263 265 266 267 269 270 272 277 281 282 282 284 285 285 286 289 291
261 261 261 260 260 259 259 259 259 257 256 256 255 255 253 251 250 251 251 252 255 258 259 259 260 261 262 263 264 265 266 267 269 272 275 277 279 281 284 283 284 285 287
261 260 261 261 261 260 260 261 260 257 256 256 254 254 253 251 251 252 252 253 255 256 257 258 259 260 261 260 262 263 263 264 267 270 273 274 276 279 282 281 281 282 285
260 260 260 259 259 259 260 261 259 257 257 256 254 254 254 253 251 250 251 251 252 254 256 257 258 258 258 258 258 260 261 263 267 269 271 272 274 276 278 279 278 279 282
261 260 259 258 258 259 260 260 260 259 257 256 254 255 255 253 250 248 249 250 251 252 254 256 257 255 255 255 254 257 259 262 265 268 270 271 272 272 273 275 275 277 279
259 258 258 258 257 257 258 259 258 258 258 257 255 255 254 252 249 247 248 250 251 252 253 253 254 253 253 253 255 256 256 257 261 264 266 268 269 271 272 273 274 276 277
257 256 256 255 255 255 255 256 256 257 257 257 255 254 254 252 250 248 248 249 249 249 250 251 252 252 252 252 252 253 252 253 257 261 264 265 266 269 271 271 273 277 278
256 255 253 252 251 252 254 255 255 256 255 254 254 254 254 253 251 248 247 247 247 248 250 250 250 249 248 248 249 249 249 252 255 258 260 262 264 266 268 269 272 275 276
255 253 252 250 250 251 253 254 254 254 254 253 253 255 255 253 250 248 247 247 247 247 248 248 246 245 244 244 246 246 247 250 253 255 258 261 263 263 264 267 270 272 275
254 251 251 250 249 250 252 252 252 253 253 253 253 253 253 251 250 249 248 247 246 246 245 243 242 241 241 242 244 244 245 247 250 253 256 258 259 261 262 264 266 268 271
Height
5689 5692 5694 5697 5699 5702 5704 5706 5708 5709 5711 5712 5713 5713 5714 5714 5714 5714 5714 5714 5713 5711 5710 5709 5707 5705 5703 5700 5697 5694 5691 5688 5686 5683 5678 5675 5671 5668 5664 5660 5656 5653 5649
5679 5682 5685 5687 5689 5692 5694 5696 5697 5699 5700 5702 5703 5704 5704 5705 5705 5706 5705 5705 5704 5703 5702 5700 5699 5697 5695 5692 5689 5687 5683 5680 5677 5674 5671 5667 5664 5660 5657 5653 5649 5646 5642
5670 5672 5675 5677 5679 5682 5684 5685 5687 5689 5690 5691 5692 5693 5694 5695 5696 5696 5696 5696 5695 5694 5693 5692 5691 5689 5687 5684 5682 5679 5675 5672 5669 5666 5663 5660 5656 5653 5650 5646 5642 5639 5636
5660 5663 5665 5667 5669 5672 5673 5675 5677 5678 5680 5681 5682 5683 5684 5685 5686 5686 5686 5687 5686 5686 5685 5684 5682 5681 5679 5677 5674 5671 5668 5664 5661 5658 5655 5653 5649 5646 5643 5640 5637 5633 5630
5651 5653 5655 5657 5659 5661 5663 5665 5666 5668 5670 5671 5672 5673 5674 5675 5676 5676 5677 5677 5677 5677 5676 5676 5674 5673 5671 5668 5666 5663 5660 5657 5654 5650 5648 5645 5643 5640 5637 5634 5630 5627 5624
5641 5643 5645 5647 5649 5651 5653 5655 5656 5658 5659 5660 5662 5663 5664 5665 5666 5667 5667 5668 5668 5668 5668 5667 5666 5664 5663 5660 5657 5655 5652 5649 5647 5644 5641 5639 5636 5633 5630 5627 5624 5621 5619
5632 5634 5636 5637 5639 5641 5642 5644 5646 5647 5649 5650 5651 5653 5654 5655 5656 5657 5658 5658 5659 5659 5659 5658 5657 5656 5654 5652 5649 5647 5644 5641 5639 5637 5634 5632 5629 5627 5624 5621 5618 5615 5612
5622 5624 5626 5627 5629 5631 5632 5634 5635 5637 5638 5640 5641 5643 5644 5646 5646 5647 5648 5649 5649 5650 5650 5649 5649 5647 5646 5644 5642 5639 5637 5634 5632 5630 5627 5625 5622 5620 5617 5615 5612 5609 5606
5613 5614 5616 5617 5619 5620 5622 5623 5625 5626 5628 5629 5631 5632 5634 5635 5636 5637 5638 5639 5640 5641 5641 5640 5640 5639 5637 5636 5634 5632 5630 5627 5625 5622 5620 5618 5615 5613 5610 5608 5606 5603 5601
5603 5604 5606 5607 5609 5610 5612 5613 5614 5616 5617 5619 5621 5622 5623 5625 5626 5627 5628 5630 5631 5632 5632 5631 5631 5630 5628 5627 5626 5624 5623 5620 5618 5616 5613 5611 5608 5606 5603 5601 5599 5597 5594
5593 5595 5596 5597 5599 5600 5601 5603 5604 5605 5607 5609 5610 5612 5614 5615 5616 5617 5619 5620 5621 5622 5622 5623 5622 5621 5620 5619 5618 5617 5615 5613 5611 5609 5606 5604 5602 5599 5597 5595 5592 5590 5588
5583 5585 5586 5587 5589 5590 5591 5592 5593 5595 5596 5598 5599 5601 5603 5605 5606 5608 5609 5610 5611 5613 5613 5613 5613 5613 5612 5611 5610 5609 5608 5606 5604 5601 5599 5597 5595 5592 5590 5588 5586 5584 5581
5574 5575 5577 5578 5579 5580 5581 5582 5583 5584 5586 5587 5589 5591 5593 5595 5596 5598 5600 5601 5602 5603 5604 5604 5604 5604 5603 5603 5602 5601 5600 5598 5597 5595 5593 5591 5588 5586 5583 5581 5580 5578 5576
5565 5566 5567 5568 5569 5570 5571 5572 5574 5574 5576 5577 5578 5580 5582 5584 5586 5588 5590 5591 5592 5594 5595 5595 5595 5595 5595 5595 5594 5594 5593 5592 5590 5589 5586 5584 5582 5580 5578 5576 5575 5573 5571
5556 5556 5557 5558 5559 5560 5562 5563 5564 5565 5566 5567 5568 5570 5572 5574 5576 5578 5580 5581 5583 5584 5585 5586 5586 5587 5587 5587 5586 5586 5586 5585 5584 5582 5580 5579 5577 5575 5573 5571 5570 5568 5566
5546 5547 5548 5549 5550 5551 5552 5553 5554 5555 5556 5557 5559 5560 5562 5564 5566 5568 5570 5571 5573 5574 5576 5577 5578 5579 5579 5579 5579 5579 5578 5578 5577 5576 5574 5573 5571 5570 5568 5567 5565 5563 5562
5538 5538 5539 5539 5540 5541 5543 5544 5545 5546 5547 5548 5549 5550 5552 5554 5556 5558 5560 5562 5564 5565 5567 5568 5569 5570 5570 5571 5571 5571 5571 5570 5570 5569 5568 5567 5565 5564 5563 5561 5560 5558 5557
5528 5529 5530 5530 5531 5532 5533 5534 5535 5536 5537 5538 5539 5541 5542 5544 5546 5548 5550 5553 5555 5556 5558 5559 5560 5561 5562 5562 5563 5563 5563 5563 5563 5562 5562 5561 5560 5558 5557 5556 5555 5554 5552
5519 5520 5521 5521 5522 5523 5524 5525 5525 5526 5527 5528 5530 5531 5533 5535 5537 5539 5541 5543 5545 5547 5549 5550 5551 5553 5553 5554 5555 5555 5556 5556 5556 5556 5555 5554 5554 5553 5551 5550 5549 5548 5547
5510 5510 5511 5512 5513 5514 5515 5515 5516 5517 5518 5519 5520 5522 5523 5525 5527 5529 5531 5533 5536 5538 5539 5541 5542 5544 5545 5546 5547 5547 5548 5549 5549 5549 5549 5548 5547 5547 5546 5545 5544 5543 5542
5500 5501 5502 5503 5504 5505 5506 5506 5507 5508 5509 5510 5511 5512 5514 5515 5517 5519 5522 5524 5526 5528 5530 5531 5533 5535 5536 5537 5539 5540 5540 5541 5542 5542 5542 5541 5541 5540 5540 5539 5538 5538 5537
5490 5491 5492 5493 5494 5495 5496 5497 5498 5499 5500 5501 5502 5503 5504 5506 5508 5510 5512 5514 5517 5519 5521 5522 5524 5526 5528 5529 5531 5532 5533 5534 5534 5535 5535 5535 5535 5534 5534 5534 5533 5533 5532
5480 5481 5482 5483 5485 5486 5487 5488 5489 5490 5491 5492 5493 5494 5496 5497 5499 5501 5503 5505 5507 5509 5511 5513 5515 5517 5519 5521 5522 5524 5525 5527 5528 5528 5529 5529 5529 5529 5528 5528 5528 5528 5528
5470 5471 5473 5474 5475 5477 5478 5479 5481 5482 5483 5484 5485 5486 5487 5488 5490 5492 5494 5496 5498 5500 5502 5505 5507 5509 5511 5512 5515 5516 5518 5520 5521 5522 5523 5523 5523 5523 5523 5523 5524 5523 5523
5461 5462 5463 5465 5466 5468 5469 5471 5472 5473 5475 5476 5477 5478 5479 5480 5481 5483 5485 5487 5489 5492 5494 5496 5498 5501 5503 5505 5507 5509 5511 5513 5514 5515 5516 5517 5517 5517 5518 5518 5518 5519 5518
5451 5453 5454 5456 5457 5459 5461 5462 5464 5465 5467 5468 5469 5470 5471 5472 5474 5475 5477 5479 5481 5483 5485 5488 5491 5493 5496 5498 5500 5502 5504 5506 5507 5509 5510 5511 5511 5512 5513 5513 5513 5513 5513